Wetbulb
42.19 42.85 42.22 40.65 40.47 41.42 40.22 40.49 35.62 38.38 40.36 44.05 46.61 46.92 46.75 47.83 48.17 47.91 47.94 48.08 47.83 47.44 47.77 47.76 47.84 48.14 46.15 45.45 44.60 43.56 42.14 41.33 41.70 42.35 41.96 41.05 40.48 39.64 39.12 38.50 37.88 37.02 35.78 34.98
36.27 41.02 41.24 38.02 40.71 41.62 41.01 41.22 41.32 42.05 41.56 47.40 47.65 47.61 46.72 47.08 47.12 46.75 46.28 46.29 46.67 47.03 45.93 46.57 47.01 47.10 43.91 43.89 43.39 43.20 41.80 42.39 42.83 41.78 41.34 39.61 39.02 37.97 37.64 36.77 35.48 34.69 33.75 33.63
32.56 37.87 36.27 32.38 37.06 40.35 41.96 43.53 42.70 37.36 42.63 46.59 45.35 45.29 45.43 45.83 46.86 45.17 45.34 45.73 46.16 45.01 45.40 46.56 46.32 44.20 42.00 42.89 43.86 42.84 42.07 40.87 40.28 40.49 39.07 37.94 37.92 36.89 35.40 33.36 33.55 32.32 32.28 32.41
32.23 32.95 27.49 39.98 45.79 44.04 42.36 43.73 44.80 43.85 44.28 45.70 45.55 46.83 46.76 47.91 45.40 44.55 44.88 44.95 45.19 45.40 45.91 46.43 43.94 42.23 43.06 43.67 42.95 40.61 39.86 39.93 40.57 39.04 37.47 36.95 36.24 34.78 32.79 32.25 31.47 31.16 31.01 31.18
31.70 32.66 36.14 38.90 42.14 41.95 39.82 39.53 44.97 43.80 45.03 45.75 46.29 45.78 44.36 47.12 46.69 45.17 44.87 45.20 45.02 46.04 45.48 42.95 42.24 42.23 41.56 41.68 40.95 40.10 39.57 38.72 38.10 37.17 35.95 35.55 33.70 31.67 31.70 30.88 30.59 30.24 29.97 29.45
36.23 30.43 27.24 38.50 43.52 46.90 45.97 34.64 45.16 44.70 43.80 44.31 43.35 37.12 40.01 46.05 46.00 45.96 45.31 45.32 44.96 44.74 43.17 42.08 41.33 42.24 41.14 40.73 40.26 38.49 38.63 37.57 37.00 36.73 35.34 33.72 32.07 30.55 30.56 30.28 29.11 29.25 28.94 29.46
33.84 31.52 34.72 43.13 45.93 47.31 33.67 36.04 44.57 45.28 44.45 43.76 41.27 42.58 45.12 46.08 46.31 46.13 45.78 44.45 45.02 42.89 40.82 41.21 42.39 42.01 39.83 38.70 38.27 38.56 37.05 36.63 36.39 35.82 34.07 33.04 31.70 31.04 30.05 28.94 28.69 28.06 26.63 28.05
32.55 31.46 29.91 46.97 46.24 37.11 42.64 46.72 45.94 45.31 44.81 44.00 44.88 45.10 45.58 45.58 44.59 44.74 43.87 43.75 42.37 40.81 40.76 41.23 41.62 40.78 38.48 36.92 36.64 36.65 36.35 35.51 34.90 34.05 33.68 33.22 30.53 29.31 28.96 28.20 27.22 24.30 25.68 25.95
37.66 37.53 45.20 47.60 46.05 47.71 47.09 46.02 45.60 45.40 46.14 45.04 43.90 44.14 44.83 44.92 44.47 43.77 42.04 40.68 40.61 40.37 40.21 40.84 40.75 38.83 36.50 35.45 36.37 35.41 34.32 33.69 32.76 32.87 32.27 31.16 28.49 27.70 27.55 27.15 26.09 25.34 26.53 24.55
38.21 41.56 43.97 45.60 47.49 47.96 48.18 46.11 46.51 46.92 45.45 45.55 43.78 43.15 43.10 44.19 44.01 42.03 40.00 38.68 39.72 39.55 38.44 38.06 38.88 37.08 35.82 35.61 35.74 34.52 32.41 31.67 31.23 30.14 29.62 29.04 28.57 28.21 26.94 25.75 25.10 25.79 24.03 23.85
37.89 42.19 43.97 45.37 47.00 47.20 47.33 47.66 46.13 46.29 45.19 42.91 42.26 41.24 42.33 42.58 41.68 39.56 37.26 38.69 39.41 38.51 38.38 37.55 37.72 36.49 36.09 35.35 34.79 31.95 30.54 30.16 30.21 29.64 28.05 27.44 28.05 27.29 26.60 26.59 26.57 24.91 24.92 25.67
36.05 43.04 43.13 43.98 47.35 48.23 45.53 44.87 44.55 43.55 42.18 42.70 42.27 41.87 42.00 40.39 39.37 37.33 36.98 38.73 38.68 38.53 37.32 36.85 36.64 35.85 35.80 35.09 32.21 29.85 28.91 29.19 28.60 27.56 27.02 27.57 26.63 26.41 29.51 28.80 28.99 29.49 29.02 27.97
43.18 46.77 46.47 47.43 47.15 46.66 44.55 44.22 43.89 42.60 42.39 41.06 41.56 40.07 39.32 37.77 37.54 37.29 38.55 38.86 37.84 36.41 36.46 35.71 35.11 34.52 33.64 30.72 29.39 27.39 26.88 27.73 26.92 26.34 26.87 25.98 25.54 24.35 22.76 26.28 29.16 29.13 28.78 27.97
47.29 46.52 42.37 44.48 43.67 45.25 44.54 43.42 43.31 42.57 41.60 40.43 39.79 39.29 37.79 37.68 38.60 38.12 37.17 36.43 35.93 35.94 35.56 34.27 33.03 32.03 32.29 32.05 29.84 27.16 28.99 26.13 26.84 25.69 25.60 25.68 24.54 24.63 24.67 23.03 22.58 23.73 27.44 26.13
45.16 45.94 44.88 44.26 43.61 42.67 42.95 42.40 40.85 39.35 37.99 36.90 38.11 37.16 37.50 37.09 36.97 35.94 35.92 33.50 33.52 33.36 33.22 31.46 28.66 29.75 32.17 31.16 29.24 28.85 28.54 27.34 25.45 25.02 24.92 24.47 25.01 24.16 24.78 22.51 23.48 23.71 24.24 23.62
43.61 42.74 41.94 40.43 40.41 40.93 40.79 40.36 39.01 37.60 35.36 35.98 35.13 34.53 35.87 36.19 34.99 34.80 33.62 30.53 29.35 29.33 30.27 26.65 26.17 30.50 30.22 30.74 29.69 29.47 29.83 25.41 22.92 24.90 24.94 24.64 24.02 23.04 23.23 22.19 23.51 23.10 22.36 21.20
39.23 37.35 38.08 38.45 39.01 39.32 39.31 40.11 38.81 35.51 35.45 35.12 34.00 31.25 30.99 30.62 30.59 31.31 31.69 29.17 28.65 28.31 28.15 27.13 29.58 31.33 29.92 29.96 29.84 28.93 29.06 27.87 23.93 26.89 24.79 23.93 23.28 21.88 22.66 22.27 23.00 22.61 22.25 22.65
41.11 40.43 40.28 39.92 38.91 38.27 37.79 38.32 36.10 35.18 34.77 33.32 29.67 27.50 27.41 27.12 28.43 28.61 29.21 28.55 27.71 27.48 28.76 29.00 28.10 29.86 27.84 29.57 26.88 26.84 27.75 27.15 26.63 25.12 25.01 24.70 22.95 23.50 21.91 21.40 21.81 22.00 21.86 21.63
40.60 39.26 39.24 39.33 39.71 37.70 37.37 37.34 34.90 35.02 31.61 29.73 27.96 26.21 27.51 28.24 28.69 28.33 27.96 26.36 26.50 27.48 30.15 28.82 29.68 26.54 28.61 28.25 24.14 26.57 28.35 26.94 25.95 24.86 24.70 20.81 23.01 21.93 21.35 22.32 20.85 21.82 21.30 20.08
38.21 38.39 38.96 38.65 38.29 34.00 33.84 34.33 33.74 32.22 32.54 29.56 27.52 27.71 30.42 30.98 27.78 26.27 26.61 27.19 28.91 30.44 30.19 30.04 29.59 29.00 28.46 28.28 23.80 25.95 27.69 25.30 24.85 23.74 24.16 23.37 23.56 20.60 20.48 19.84 20.74 20.14 20.26 19.97
35.72 36.68 35.46 34.71 34.16 33.06 32.64 31.48 30.47 30.23 31.39 29.19 27.65 28.49 27.22 28.04 28.06 30.12 28.82 27.68 31.05 30.93 30.28 30.17 30.14 30.16 30.52 29.30 26.54 29.40 26.68 25.71 25.11 24.40 23.30 21.95 22.64 20.63 21.66 20.73 20.76 19.76 19.17 19.01
35.61 34.66 34.06 33.64 32.88 32.10 33.19 31.98 31.90 30.98 30.19 29.91 28.79 27.82 28.69 29.98 30.94 29.82 28.50 29.35 29.91 30.56 30.45 29.20 29.20 31.14 30.62 27.67 28.40 29.01 27.32 26.35 24.55 24.57 24.05 21.48 20.05 18.89 19.00 19.78 19.70 19.69 18.86 18.41
35.68 35.86 35.35 34.21 32.94 33.12 33.16 32.41 31.85 31.58 30.91 30.65 30.42 30.83 30.17 29.77 30.29 28.60 27.25 30.56 30.03 30.34 29.58 29.93 31.45 30.93 27.68 28.25 29.13 29.06 27.47 26.23 24.70 24.40 23.22 22.54 19.49 17.31 18.94 18.35 18.55 18.03 16.57 17.69
35.98 35.92 35.70 35.48 33.83 32.38 31.31 32.15 31.43 31.56 30.96 31.57 31.05 29.49 29.44 31.15 30.61 33.28 32.58 30.58 30.71 30.99 30.83 31.19 29.78 28.80 26.33 27.98 28.84 28.62 27.91 27.02 25.85 25.43 23.91 12.68 19.05 18.39 19.15 18.65 17.76 17.99 16.76 15.60
34.79 34.71 34.55 33.70 32.80 32.32 31.91 31.40 31.42 31.10 30.59 31.13 31.44 31.28 30.93 32.13 30.25 31.05 30.88 31.13 31.10 30.85 30.95 31.02 28.01 26.75 26.31 27.73 28.33 28.29 27.85 27.19 26.29 25.17 24.33 22.27 18.91 17.21 19.85 19.07 16.90 16.09 15.68 15.09
35.62 34.53 33.77 34.14 33.31 33.68 32.38 32.49 31.49 32.71 32.95 32.98 32.41 32.24 31.24 31.25 32.31 31.97 32.01 31.62 31.38 30.67 30.97 31.40 30.82 29.00 27.96 27.99 28.54 28.51 27.27 26.43 24.40 23.01 22.23 21.36 19.27 16.86 17.26 17.98 17.07 17.18 16.02 14.58
34.25 33.02 32.55 32.14 32.82 33.06 33.33 33.90 33.57 33.77 32.55 31.85 30.65 30.86 31.28 31.08 31.79 30.56 31.12 31.29 30.50 29.64 31.54 31.62 31.10 30.18 28.72 28.83 28.93 28.10 26.92 26.40 23.86 24.08 23.32 22.77 20.13 18.66 17.38 16.68 17.15 16.53 15.35 14.06
MSLP
1019.69 1018.96 1018.49 1017.79 1016.60 1015.52 1014.81 1014.25 1013.81 1011.77 1011.42 1010.11 1009.65 1009.37 1009.84 1010.53 1010.89 1011.22 1011.26 1011.45 1011.96 1012.10 1011.68 1011.66 1011.53 1011.15 1010.68 1010.61 1010.37 1010.78 1011.46 1012.01 1012.48 1013.02 1013.45 1014.05 1014.12 1014.33 1014.55 1014.66 1014.54 1014.32 1014.12 1013.89
1020.80 1020.09 1019.12 1017.75 1016.57 1015.01 1014.30 1013.67 1012.69 1011.67 1010.44 1010.23 1009.84 1010.23 1010.64 1011.27 1011.53 1011.78 1012.35 1012.70 1012.74 1012.46 1012.35 1011.85 1011.36 1011.02 1011.01 1010.82 1010.65 1010.98 1011.61 1012.36 1013.12 1013.64 1013.43 1013.69 1014.02 1014.14 1014.28 1014.24 1014.08 1013.89 1013.65 1013.44
1021.29 1020.65 1019.68 1018.13 1015.46 1014.30 1013.56 1012.97 1012.14 1011.32 1010.69 1010.22 1010.36 1011.26 1011.95 1012.12 1012.24 1012.72 1013.11 1013.13 1012.69 1012.49 1012.12 1011.52 1011.35 1011.54 1011.60 1011.41 1011.67 1011.92 1012.46 1013.11 1013.46 1013.57 1013.44 1013.65 1013.85 1013.99 1014.02 1014.04 1013.72 1013.54 1013.28 1013.03
1022.19 1021.51 1019.27 1015.85 1014.42 1013.85 1013.06 1012.50 1012.17 1011.80 1011.32 1011.14 1011.67 1012.28 1012.77 1012.94 1013.26 1013.34 1013.37 1012.99 1012.51 1012.17 1011.70 1011.42 1011.65 1011.91 1011.89 1012.04 1012.18 1012.48 1012.85 1013.10 1012.97 1012.97 1013.19 1013.49 1013.71 1013.80 1013.77 1013.67 1013.61 1013.35 1013.01 1012.72
1022.66 1020.81 1017.77 1016.49 1014.41 1013.69 1013.04 1012.44 1012.58 1012.63 1012.74 1012.96 1012.88 1012.97 1013.24 1013.54 1013.89 1013.91 1013.29 1012.78 1012.56 1011.90 1011.58 1011.77 1012.08 1012.25 1012.15 1012.24 1012.48 1012.74 1012.21 1012.03 1012.42 1012.82 1013.16 1013.34 1013.52 1013.55 1013.60 1013.56 1013.35 1013.06 1012.80 1012.74
1022.21 1020.56 1017.38 1015.20 1014.21 1013.59 1013.04 1012.73 1013.57 1013.87 1013.88 1014.04 1013.70 1013.67 1013.36 1013.36 1013.10 1012.97 1013.12 1012.62 1011.94 1011.79 1012.02 1012.08 1012.12 1012.00 1011.78 1011.68 1011.60 1011.47 1011.65 1012.19 1012.64 1012.87 1013.11 1013.21 1013.35 1013.41 1013.32 1013.13 1012.98 1012.84 1012.70 1012.56
1021.30 1019.80 1016.58 1014.72 1013.65 1013.46 1014.19 1014.84 1014.99 1014.52 1014.66 1014.28 1014.03 1014.03 1013.40 1012.95 1012.50 1012.70 1012.45 1011.91 1011.82 1012.07 1012.25 1012.05 1011.63 1011.70 1011.63 1011.46 1011.34 1011.75 1012.13 1012.53 1012.82 1012.93 1013.02 1013.10 1013.22 1013.16 1013.01 1012.94 1012.83 1012.61 1012.41 1012.28
1020.19 1018.71 1015.65 1013.80 1013.60 1014.87 1014.56 1014.09 1014.34 1014.06 1014.12 1013.87 1013.43 1012.90 1012.49 1012.31 1012.07 1012.09 1012.01 1011.84 1012.22 1012.33 1012.31 1012.16 1012.04 1012.14 1011.82 1011.66 1011.86 1012.21 1012.51 1012.83 1013.01 1013.01 1013.12 1013.14 1013.17 1013.10 1012.96 1012.84 1012.51 1012.43 1012.20 1011.80
1018.63 1016.65 1014.75 1014.16 1014.31 1013.91 1014.34 1014.25 1014.14 1013.97 1013.36 1013.08 1012.86 1012.42 1012.17 1012.01 1011.94 1012.09 1012.17 1012.53 1012.49 1012.41 1012.27 1012.29 1012.09 1011.78 1011.98 1012.45 1012.44 1012.62 1012.89 1013.01 1013.19 1013.28 1013.28 1013.18 1013.32 1013.12 1012.94 1012.66 1012.56 1012.36 1012.01 1011.63
1017.86 1016.09 1014.98 1014.51 1014.24 1014.22 1014.02 1014.05 1014.14 1013.57 1013.09 1012.98 1012.48 1012.01 1011.58 1011.58 1011.89 1012.07 1012.72 1013.01 1012.89 1012.63 1012.45 1012.15 1011.91 1012.14 1012.56 1012.79 1012.93 1013.08 1013.28 1013.35 1013.46 1013.44 1013.35 1013.44 1013.41 1013.17 1012.92 1012.79 1012.62 1012.42 1012.12 1011.52
1016.30 1015.28 1014.69 1014.12 1014.10 1013.79 1013.55 1013.38 1013.34 1013.33 1012.70 1012.25 1012.37 1011.85 1011.57 1011.88 1012.16 1012.75 1013.27 1013.03 1012.90 1012.66 1012.37 1012.01 1011.95 1012.32 1012.74 1013.10 1013.22 1013.48 1013.65 1013.69 1013.66 1013.67 1013.73 1013.60 1013.33 1013.11 1012.91 1012.88 1012.81 1012.38 1011.98 1011.42
1015.12 1014.64 1014.72 1013.24 1012.89 1012.88 1012.95 1013.33 1013.14 1012.82 1012.38 1012.05 1012.09 1012.25 1012.50 1012.78 1013.06 1013.33 1013.36 1013.05 1012.73 1012.53 1012.12 1012.05 1012.19 1012.57 1012.87 1013.21 1013.79 1014.13 1014.18 1014.14 1014.22 1014.11 1013.96 1013.57 1013.30 1013.02 1012.92 1012.69 1012.35 1012.03 1011.63 1011.31
1014.42 1013.84 1012.89 1012.46 1012.52 1012.90 1013.35 1013.01 1013.03 1013.01 1012.68 1012.56 1013.18 1013.56 1013.69 1013.60 1013.60 1013.45 1013.30 1013.32 1013.08 1012.45 1012.46 1012.72 1012.92 1013.11 1013.55 1014.09 1014.43 1014.66 1014.75 1014.64 1014.47 1014.28 1014.05 1013.80 1013.53 1013.28 1012.75 1012.35 1012.13 1011.78 1011.42 1011.15
1013.32 1012.82 1013.20 1012.89 1012.64 1012.87 1012.53 1012.88 1013.35 1013.66 1013.60 1014.14 1014.35 1014.20 1014.19 1014.12 1013.93 1013.80 1013.72 1013.32 1013.32 1013.16 1013.13 1013.50 1013.66 1013.77 1013.81 1013.98 1014.31 1014.63 1014.69 1014.56 1014.37 1014.46 1014.31 1013.97 1013.65 1013.27 1012.82 1012.60 1012.21 1011.72 1011.34 1011.16
1012.52 1012.87 1012.74 1012.57 1012.65 1012.87 1012.89 1013.47 1013.30 1013.51 1014.56 1015.09 1015.28 1014.80 1014.94 1014.78 1014.58 1014.18 1013.97 1014.34 1014.20 1014.03 1014.10 1014.20 1014.42 1014.33 1014.19 1014.23 1014.40 1014.47 1014.27 1014.21 1014.28 1014.37 1014.19 1013.84 1013.48 1013.21 1012.87 1012.78 1012.45 1012.00 1011.52 1011.25
1012.92 1013.15 1013.18 1013.15 1013.20 1013.13 1013.18 1013.14 1013.58 1014.28 1015.08 1015.75 1015.07 1015.51 1015.57 1015.25 1015.05 1014.71 1014.60 1014.97 1015.00 1014.85 1014.80 1014.82 1014.72 1014.53 1014.43 1014.28 1014.24 1014.13 1013.85 1014.00 1014.18 1014.17 1014.04 1013.70 1013.52 1013.34 1013.09 1012.95 1012.65 1012.37 1012.09 1011.92
1013.19 1013.37 1013.39 1013.72 1013.77 1013.58 1013.65 1013.66 1014.11 1014.88 1015.17 1015.21 1015.73 1016.01 1015.89 1015.72 1015.52 1015.27 1015.23 1015.36 1015.38 1015.27 1015.05 1014.91 1014.82 1014.60 1014.64 1014.42 1014.21 1014.20 1014.11 1014.09 1014.13 1013.98 1013.87 1013.76 1013.65 1013.57 1013.37 1013.18 1012.93 1012.75 1012.56 1012.43
1013.61 1013.87 1014.06 1014.12 1014.13 1014.04 1014.01 1014.26 1014.70 1015.26 1015.47 1015.66 1016.00 1016.10 1016.05 1016.00 1015.83 1015.59 1015.56 1015.48 1015.29 1015.03 1014.75 1014.64 1014.65 1014.65 1014.59 1014.57 1014.63 1014.54 1014.26 1014.28 1014.26 1014.05 1013.87 1013.83 1013.76 1013.66 1013.49 1013.37 1013.30 1013.08 1012.89 1012.80
1014.13 1014.36 1014.35 1014.21 1014.27 1014.46 1014.54 1014.51 1014.83 1015.26 1015.60 1015.67 1015.96 1016.04 1016.07 1015.96 1015.85 1015.72 1015.60 1015.51 1015.19 1014.88 1014.66 1014.54 1014.66 1014.84 1014.72 1014.59 1014.72 1014.53 1014.20 1014.27 1014.26 1014.08 1014.00 1013.99 1013.87 1013.80 1013.70 1013.62 1013.56 1013.44 1013.29 1013.21
1014.87 1014.94 1014.74 1014.47 1014.45 1014.80 1014.96 1015.12 1015.24 1015.32 1015.48 1015.59 1015.80 1015.89 1015.92 1015.76 1015.73 1015.71 1015.57 1015.36 1015.04 1014.97 1014.91 1014.83 1014.74 1014.65 1014.43 1014.33 1014.51 1014.42 1014.28 1014.24 1014.21 1014.12 1014.11 1014.08 1013.97 1013.91 1013.85 1013.85 1013.83 1013.78 1013.74 1013.68
1015.34 1015.02 1014.77 1014.60 1014.49 1014.61 1014.86 1015.08 1015.16 1015.26 1015.36 1015.45 1015.58 1015.71 1015.66 1015.58 1015.53 1015.52 1015.38 1015.21 1014.97 1014.99 1014.86 1014.70 1014.54 1014.30 1014.07 1014.08 1014.18 1014.08 1014.24 1014.21 1014.17 1014.18 1014.18 1014.16 1014.10 1014.06 1014.05 1014.07 1014.05 1014.05 1014.14 1014.17
1014.93 1014.84 1014.69 1014.56 1014.62 1014.43 1014.49 1014.68 1015.06 1015.19 1015.25 1015.31 1015.35 1015.49 1015.50 1015.32 1015.11 1015.11 1014.99 1015.05 1014.90 1014.94 1014.76 1014.56 1014.36 1014.14 1013.98 1014.09 1014.06 1014.00 1014.08 1014.10 1014.19 1014.20 1014.23 1014.31 1014.34 1014.33 1014.33 1014.35 1014.34 1014.37 1014.47 1014.55
1014.46 1014.29 1014.15 1014.09 1014.20 1014.12 1014.10 1014.43 1014.72 1014.88 1014.97 1014.95 1015.08 1015.19 1015.23 1015.10 1015.00 1014.92 1014.84 1014.87 1014.80 1014.70 1014.59 1014.30 1014.09 1014.00 1014.10 1014.08 1013.89 1013.81 1013.92 1013.99 1014.09 1014.14 1014.27 1014.43 1014.55 1014.59 1014.53 1014.57 1014.58 1014.68 1014.83 1014.86
1013.85 1013.71 1013.70 1013.78 1013.86 1013.86 1013.75 1013.92 1014.19 1014.32 1014.53 1014.67 1014.81 1014.92 1014.98 1014.81 1014.81 1014.54 1014.57 1014.67 1014.62 1014.56 1014.38 1014.25 1014.15 1014.12 1014.19 1013.97 1013.73 1013.72 1013.74 1013.80 1013.89 1013.98 1014.16 1014.55 1014.44 1014.48 1014.58 1014.66 1014.83 1014.85 1015.04 1015.11
1013.16 1013.17 1013.36 1013.45 1013.24 1013.11 1013.28 1013.51 1013.66 1013.92 1014.22 1014.33 1014.40 1014.53 1014.78 1014.64 1014.79 1014.67 1014.64 1014.54 1014.41 1014.31 1014.14 1013.96 1014.07 1014.13 1014.13 1013.89 1013.73 1013.64 1013.64 1013.66 1013.75 1013.92 1013.97 1014.10 1014.32 1014.48 1014.53 1014.73 1015.02 1015.15 1015.20 1015.36
1012.40 1012.68 1012.86 1012.75 1012.65 1012.81 1012.83 1012.72 1013.12 1013.26 1013.49 1013.77 1014.06 1014.30 1014.59 1014.66 1014.45 1014.38 1014.32 1014.19 1014.19 1014.09 1013.89 1013.81 1013.76 1013.75 1013.79 1013.72 1013.56 1013.51 1013.57 1013.59 1013.76 1013.92 1013.97 1014.02 1014.19 1014.42 1014.57 1014.76 1014.96 1015.14 1015.36 1015.61
1012.04 1012.44 1012.32 1012.28 1012.36 1012.54 1012.39 1012.49 1012.83 1013.00 1013.30 1013.76 1014.02 1014.29 1014.27 1014.36 1014.22 1014.27 1014.13 1014.05 1013.98 1013.86 1013.74 1013.61 1013.50 1013.41 1013.41 1013.41 1013.29 1013.30 1013.38 1013.51 1013.61 1013.75 1013.86 1013.94 1014.06 1014.24 1014.51 1014.76 1014.96 1015.21 1015.45 1015.61
Wind_Speed
17 19 20 23 25 25 23 21 20 24 23 23 19 18 13 13 15 17 17 17 17 18 16 15 16 16 10 12 1 3 2 4 2 4 4 7 3 5 5 6 8 9 10 10
7 19 20 20 23 25 26 22 22 21 21 16 17 14 16 19 20 18 15 17 19 18 18 19 15 12 11 10 3 2 2 7 7 8 5 2 4 4 6 8 7 9 8 9
8 9 11 11 15 17 14 17 17 16 21 18 15 15 16 20 17 13 17 17 16 15 17 17 13 9 9 9 9 7 6 4 5 8 5 3 4 6 6 7 7 7 8 9
3 3 7 8 21 24 20 16 17 19 21 14 15 20 19 15 13 13 14 19 19 15 16 12 7 6 6 7 5 2 3 7 10 4 2 4 5 6 6 6 7 8 8 8
4 9 18 16 18 13 19 13 16 10 19 23 21 19 16 11 9 12 17 14 16 16 11 7 6 5 3 2 2 7 11 2 2 2 4 5 6 6 6 7 8 7 6 8
3 14 16 2 18 19 12 15 12 13 17 20 13 13 10 16 13 12 12 15 14 9 8 9 7 7 5 6 8 3 2 3 4 4 5 6 5 6 5 6 7 5 10 8
11 11 11 14 15 12 7 5 17 14 16 17 14 8 15 18 11 11 14 13 10 8 10 10 5 3 6 6 7 4 5 3 4 5 6 6 6 6 6 7 7 8 4 7
5 6 12 4 11 5 14 17 19 15 13 17 16 18 15 14 8 12 14 11 10 9 7 5 5 5 7 6 9 5 4 4 5 5 5 6 6 7 7 8 7 5 8 9
11 8 21 24 25 16 25 20 19 20 19 11 17 18 14 13 12 10 6 9 9 8 4 6 8 4 6 6 5 4 4 5 5 6 7 6 8 7 7 6 6 8 8 10
17 17 24 24 25 22 20 18 18 19 15 18 16 15 16 10 9 8 8 9 7 5 6 7 5 3 6 4 4 6 5 5 5 5 6 6 5 5 5 5 7 8 9 10
21 23 22 20 19 22 22 19 13 15 14 12 15 16 14 10 11 9 9 6 5 6 7 7 3 4 3 3 3 4 5 5 5 5 6 6 5 4 3 3 6 9 9 9
18 21 19 25 22 25 16 11 15 13 13 14 16 15 14 11 10 9 6 6 5 7 5 5 4 2 2 7 8 6 5 5 5 4 5 5 5 6 7 10 14 16 14 10
18 25 26 23 19 17 15 14 12 14 13 14 13 12 14 12 8 7 8 9 9 7 6 5 5 5 8 5 4 4 4 5 4 5 5 6 6 7 8 7 13 15 13 15
24 17 14 14 12 12 8 13 15 13 14 15 13 10 8 8 7 8 7 7 7 7 6 7 6 6 5 4 3 1 3 6 3 4 5 5 5 6 6 6 9 9 10 15
13 12 11 11 13 13 13 13 13 12 12 10 6 8 8 8 10 10 7 7 6 2 5 5 5 5 5 4 1 4 4 3 1 2 3 5 3 4 5 5 7 8 7 9
10 10 11 12 13 14 15 16 13 10 8 6 7 6 7 9 9 8 4 4 4 4 4 3 3 6 4 5 5 6 5 6 2 2 4 3 4 5 5 5 7 6 6 7
5 7 10 11 13 16 16 13 8 5 5 4 4 4 5 5 6 3 4 2 3 4 3 3 4 4 4 5 5 5 5 4 4 3 3 3 3 5 5 5 6 5 5 7
8 9 12 13 14 14 12 7 2 3 5 3 3 3 3 3 4 4 3 3 4 5 5 4 2 4 1 4 4 4 3 3 5 5 3 4 4 4 4 4 6 5 5 6
10 13 15 15 14 9 10 4 2 3 4 3 3 3 3 4 3 3 4 4 5 6 3 1 0 2 5 3 2 4 2 2 4 5 3 4 4 4 3 5 4 5 5 5
14 16 17 16 13 5 8 5 7 5 4 2 2 2 5 4 2 3 3 6 6 3 5 6 5 5 4 3 4 3 2 2 3 3 4 4 4 3 2 4 4 5 6 5
12 14 13 11 11 5 7 5 4 4 3 2 2 2 2 3 2 4 6 6 2 3 4 6 5 5 3 2 2 2 1 2 3 3 3 3 4 3 3 4 4 4 4 5
12 11 10 9 8 8 5 4 3 3 3 3 3 2 2 5 3 3 4 3 5 6 4 4 4 7 1 1 2 1 2 2 2 2 3 2 3 3 3 4 4 4 4 4
12 11 10 9 8 7 3 4 5 5 5 3 3 3 3 2 2 3 4 2 5 5 6 5 5 5 1 3 3 2 2 2 2 1 1 2 2 2 2 2 2 3 3 3
12 10 10 8 3 6 8 5 6 5 4 4 5 4 3 2 3 2 2 6 6 5 5 4 5 5 5 3 3 2 2 2 2 1 2 2 1 1 2 2 2 3 3 3
10 5 7 10 10 6 5 7 5 4 5 5 3 3 3 2 3 3 4 4 5 5 5 2 3 4 4 4 3 3 2 2 1 1 1 1 1 1 1 3 3 2 2 2
7 6 9 10 6 4 6 5 4 4 4 3 3 2 1 2 1 2 4 4 3 5 5 3 2 2 3 4 4 3 2 2 2 2 2 1 2 0 2 2 2 2 3 3
6 7 6 4 4 5 2 2 3 2 3 2 2 2 2 2 3 3 4 2 3 5 4 3 3 3 3 3 3 3 2 3 3 2 3 2 2 2 3 2 2 3 3 2
Wind_Direction
284 295 309 303 290 285 282 287 287 296 291 301 312 321 19 1 353 339 331 349 357 337 329 332 317 309 327 314 282 149 201 195 219 28 346 262 231 249 282 289 284 281 286 283
274 290 293 305 302 287 288 288 281 287 289 314 337 7 359 347 339 339 347 341 335 322 330 312 317 313 335 324 309 148 69 18 344 286 285 283 267 298 282 274 290 285 286 292
279 300 331 288 257 267 271 298 289 301 310 327 336 0 342 332 328 355 337 328 323 315 304 297 329 360 339 356 26 27 16 331 298 275 256 280 300 283 290 288 286 292 296 296
286 332 236 251 317 309 298 303 303 306 298 326 343 343 340 343 351 338 330 321 310 304 298 324 349 342 4 346 331 30 303 266 240 236 298 310 289 293 289 298 302 302 298 305
257 257 283 287 274 327 313 299 300 338 349 336 328 326 317 340 342 318 305 313 298 295 335 351 329 329 305 275 264 254 238 221 22 26 306 297 290 300 311 310 297 294 319 321
280 286 294 326 313 295 306 278 19 348 312 305 345 313 309 315 303 304 311 298 303 336 333 313 290 288 270 232 226 298 10 45 22 331 303 298 319 313 293 291 305 329 303 300
258 267 270 280 290 4 289 334 305 329 332 329 314 297 300 304 319 311 303 315 331 346 321 303 305 308 289 305 287 68 66 29 328 309 318 323 321 306 314 315 311 292 302 304
237 244 279 266 338 334 307 311 333 326 309 294 293 300 312 317 316 311 311 334 345 320 309 334 325 337 293 1 64 57 23 351 320 332 336 323 317 328 317 312 301 334 316 309
258 271 289 304 302 324 318 324 323 304 315 319 324 318 320 310 326 314 7 349 330 307 322 329 306 338 341 40 33 31 339 335 353 341 321 341 324 323 311 319 334 320 320 319
290 275 285 302 301 301 299 316 312 309 345 322 314 326 321 322 322 346 2 329 312 336 320 313 316 89 29 33 14 350 342 354 334 314 340 332 327 311 324 330 335 334 322 315
273 274 290 283 290 302 297 307 331 323 301 325 319 320 323 340 342 354 326 310 311 305 301 312 47 39 65 1 354 342 354 336 322 3 336 318 306 319 323 348 343 318 314 311
271 290 284 284 293 290 327 328 329 313 330 332 343 355 356 341 336 323 306 287 285 299 317 336 18 13 343 31 36 14 340 342 346 321 312 308 328 328 353 330 320 319 331 330
287 291 284 286 328 345 347 324 326 336 345 12 1 352 334 317 316 299 312 351 301 355 8 14 3 349 71 72 68 30 350 325 327 305 337 332 335 332 319 329 332 330 349 353
272 292 341 315 321 309 308 352 338 357 16 357 340 334 333 305 336 336 326 359 4 360 15 17 4 7 41 14 80 196 287 291 275 353 324 316 319 313 322 342 335 332 349 5
348 328 315 354 344 344 350 338 338 6 1 342 354 12 351 350 342 333 26 2 343 339 35 15 13 339 342 360 29 287 282 271 75 296 291 300 308 327 334 346 329 334 345 4
326 347 354 353 337 339 335 335 341 360 351 346 18 357 325 327 325 338 30 33 358 346 2 356 320 304 27 343 330 312 311 115 244 348 298 331 337 340 344 345 334 345 358 6
15 359 358 339 333 333 329 331 352 3 326 6 10 337 322 315 302 300 342 14 302 285 276 262 282 325 341 303 326 323 353 351 345 310 328 336 346 340 342 352 341 353 8 10
10 351 330 332 324 324 323 324 24 315 301 354 306 305 298 303 297 306 316 303 291 281 255 240 243 307 307 332 8 313 307 359 337 323 346 353 337 326 351 360 353 356 12 8
350 329 320 312 314 317 313 285 236 265 281 254 273 286 271 273 280 302 301 299 290 283 6 52 12 333 316 27 341 305 304 4 327 317 3 349 335 351 355 1 4 7 9 21
329 311 304 301 305 303 295 287 283 250 231 188 254 289 301 310 321 314 311 294 285 315 347 317 316 296 263 239 203 283 353 352 318 336 349 335 350 336 1 12 18 27 14 24
297 295 289 278 273 271 259 250 237 243 222 205 228 270 295 302 285 323 327 333 48 14 328 308 282 289 263 277 196 280 315 304 326 349 333 334 343 355 17 13 25 35 41 20
309 301 293 283 267 269 228 198 221 237 242 221 202 229 294 287 288 294 258 315 341 343 322 316 297 320 346 81 276 262 285 311 325 322 344 5 358 356 13 23 21 43 42 45
303 295 292 291 263 265 221 198 210 223 231 200 221 235 270 286 283 318 323 12 333 327 327 316 313 318 220 281 275 269 268 260 278 322 359 353 9 13 6 53 359 59 46 30
293 296 299 298 282 256 239 201 217 206 208 216 222 220 243 294 303 265 10 332 322 329 319 334 347 339 309 291 288 290 282 282 242 245 129 190 256 343 43 43 33 57 54 33
284 279 295 293 278 252 217 235 179 178 193 218 218 180 189 272 296 317 302 302 301 305 313 322 348 345 301 283 293 286 281 259 289 320 214 242 91 27 34 80 64 32 64 57
282 293 292 274 248 220 221 189 202 190 186 173 194 152 218 264 261 283 291 276 288 307 302 307 269 227 254 275 276 277 271 262 176 208 280 276 128 120 109 99 112 84 78 78
313 290 280 251 209 230 240 202 189 168 127 117 257 232 233 312 334 320 314 329 312 315 317 308 284 261 235 272 278 240 221 256 194 232 191 240 173 161 129 150 128 109 117 146